Location: Zagreb
(45.8000°N, 16.0000°E)
Time: 20:19:56
(UTC+01:00)

YUBILEINY - Pass Details

Date: 09 November 2020
Orbit: 1478 x 1509 km, 82.5° (Epoch: 01 December)

Event Time Altitude Azimuth Distance (km) Brightness Sun altitude
Rises 21:27:58 0° 346° (NNW) 4,610 ? -50.4°
Reaches altitude 10° 21:31:00 10° 340° (NNW) 3,627 ? -50.8°
Enters shadow 21:35:05 28° 322° (NW) 2,487 ? -51.4°
